Time,TemperatureF,DewpointF,PressureIn,WindDirection,WindDirectionDegrees,WindSpeedMPH,WindSpeedGustMPH,Humidity,HourlyPrecipIn,Conditions,Clouds,dailyrainin,SoftwareType,DateUTC
2013-02-10 00:00:00,20.1,8.5,30.38,NNW,344,4.0,6.0,60,0.00,,CLR,0.00,VWS V14.01,2013-02-10 05:00:00,
2013-02-10 00:01:00,20.1,8.5,30.38,WNW,303,3.0,7.0,60,0.00,,CLR,0.00,VWS V14.01,2013-02-10 05:01:00,
2013-02-10 00:06:00,20.0,8.4,30.38,NW,319,3.0,7.0,60,0.00,,CLR,0.00,VWS V14.01,2013-02-10 05:06:00,
2013-02-10 00:11:00,19.9,8.6,30.38,WNW,302,6.0,7.0,61,0.00,,CLR,0.00,VWS V14.01,2013-02-10 05:11:00,
2013-02-10 00:16:00,19.8,8.5,30.38,NW,304,5.0,9.0,61,0.00,,CLR,0.00,VWS V14.01,2013-02-10 05:16:00,
2013-02-10 00:21:00,19.8,8.5,30.38,NW,310,5.0,10.0,61,0.00,,CLR,0.00,VWS V14.01,2013-02-10 05:21:00,
2013-02-10 00:26:00,19.9,8.6,30.39,NNW,344,4.0,10.0,61,0.00,,CLR,0.00,VWS V14.01,2013-02-10 05:26:00,
2013-02-10 00:31:00,19.9,8.6,30.39,WNW,290,8.0,8.0,61,0.00,,CLR,0.00,VWS V14.01,2013-02-10 05:31:00,
2013-02-10 00:36:00,19.9,8.6,30.39,NW,326,9.0,10.0,61,0.00,,CLR,0.00,VWS V14.01,2013-02-10 05:36:00,
2013-02-10 00:41:00,19.9,8.6,30.39,WNW,297,2.0,10.0,61,0.00,,CLR,0.00,VWS V14.01,2013-02-10 05:41:00,
2013-02-10 00:46:00,19.9,8.6,30.39,NW,314,3.0,10.0,61,0.00,,CLR,0.00,VWS V14.01,2013-02-10 05:46:00,
2013-02-10 00:51:00,19.9,8.6,30.39,NW,315,6.0,10.0,61,0.00,,CLR,0.00,VWS V14.01,2013-02-10 05:51:00,
2013-02-10 00:56:00,19.8,8.5,30.39,NNW,342,5.0,10.0,61,0.00,,CLR,0.00,VWS V14.01,2013-02-10 05:56:00,
2013-02-10 01:01:00,19.8,8.9,30.39,NW,308,3.0,7.0,62,0.00,,CLR,0.00,VWS V14.01,2013-02-10 06:01:00,
2013-02-10 01:06:00,19.7,8.8,30.39,WNW,283,3.0,9.0,62,0.00,,CLR,0.00,VWS V14.01,2013-02-10 06:06:00,
2013-02-10 01:11:00,19.5,8.6,30.39,WNW,300,3.0,9.0,62,0.00,,CLR,0.00,VWS V14.01,2013-02-10 06:11:00,
2013-02-10 01:16:00,19.4,8.9,30.39,NW,312,3.0,9.0,63,0.00,,CLR,0.00,VWS V14.01,2013-02-10 06:16:00,
2013-02-10 01:21:00,19.3,8.8,30.40,NW,321,4.0,9.0,63,0.00,,CLR,0.00,VWS V14.01,2013-02-10 06:21:00,
2013-02-10 01:26:00,19.3,8.8,30.40,NW,325,3.0,9.0,63,0.00,,CLR,0.00,VWS V14.01,2013-02-10 06:26:00,
2013-02-10 01:31:00,19.3,9.1,30.40,NW,319,4.0,5.0,64,0.00,,CLR,0.00,VWS V14.01,2013-02-10 06:31:00,
2013-02-10 01:36:00,19.1,8.9,30.40,NW,307,5.0,6.0,64,0.00,,CLR,0.00,VWS V14.01,2013-02-10 06:36:00,
2013-02-10 01:41:00,19.0,8.8,30.40,NW,318,3.0,7.0,64,0.00,,CLR,0.00,VWS V14.01,2013-02-10 06:41:00,
2013-02-10 01:47:00,19.0,8.8,30.40,North,355,4.0,7.0,64,0.00,,CLR,0.00,VWS V14.01,2013-02-10 06:47:00,
2013-02-10 01:52:00,18.9,9.1,30.40,NW,305,2.0,8.0,65,0.00,,CLR,0.00,VWS V14.01,2013-02-10 06:52:00,
2013-02-10 01:57:00,18.8,9.0,30.40,NW,313,4.0,8.0,65,0.00,,CLR,0.00,VWS V14.01,2013-02-10 06:57:00,
2013-02-10 02:02:00,18.8,9.0,30.40,NW,308,2.0,5.0,65,0.00,,CLR,0.00,VWS V14.01,2013-02-10 07:02:00,
2013-02-10 02:07:00,18.8,9.0,30.41,WNW,303,3.0,6.0,65,0.00,,CLR,0.00,VWS V14.01,2013-02-10 07:07:00,
2013-02-10 02:12:00,18.8,9.0,30.41,WNW,292,4.0,6.0,65,0.00,,CLR,0.00,VWS V14.01,2013-02-10 07:12:00,
2013-02-10 02:17:00,18.8,9.3,30.41,WNW,299,6.0,8.0,66,0.00,,CLR,0.00,VWS V14.01,2013-02-10 07:17:00,
2013-02-10 02:22:00,18.8,9.3,30.41,NNW,331,3.0,8.0,66,0.00,,CLR,0.00,VWS V14.01,2013-02-10 07:22:00,
2013-02-10 02:27:00,18.9,9.4,30.41,NW,308,5.0,8.0,66,0.00,,CLR,0.00,VWS V14.01,2013-02-10 07:27:00,
2013-02-10 02:32:00,18.9,9.4,30.41,WNW,294,3.0,6.0,66,0.00,,CLR,0.00,VWS V14.01,2013-02-10 07:32:00,
2013-02-10 02:37:00,18.9,9.8,30.41,NW,323,4.0,6.0,67,0.00,,CLR,0.00,VWS V14.01,2013-02-10 07:37:00,
2013-02-10 02:42:00,18.9,9.8,30.41,NW,310,3.0,6.0,67,0.00,,CLR,0.00,VWS V14.01,2013-02-10 07:42:00,
2013-02-10 02:47:00,18.9,9.8,30.40,NW,314,2.0,6.0,67,0.00,,CLR,0.00,VWS V14.01,2013-02-10 07:47:00,
2013-02-10 02:52:00,18.9,9.8,30.40,NW,313,2.0,6.0,67,0.00,,CLR,0.00,VWS V14.01,2013-02-10 07:52:00,
2013-02-10 02:57:00,18.8,9.7,30.40,NW,304,3.0,6.0,67,0.00,,CLR,0.00,VWS V14.01,2013-02-10 07:57:00,
2013-02-10 03:02:00,18.7,9.9,30.40,NW,312,2.0,3.0,68,0.00,,CLR,0.00,VWS V14.01,2013-02-10 08:02:00,
2013-02-10 03:07:00,18.6,9.8,30.40,NW,312,3.0,3.0,68,0.00,,CLR,0.00,VWS V14.01,2013-02-10 08:07:00,
2013-02-10 03:12:00,18.5,9.7,30.40,WNW,300,4.0,5.0,68,0.00,,CLR,0.00,VWS V14.01,2013-02-10 08:12:00,
2013-02-10 03:17:00,18.4,9.9,30.40,NNW,340,4.0,6.0,69,0.00,,CLR,0.00,VWS V14.01,2013-02-10 08:17:00,
2013-02-10 03:22:00,18.3,9.9,30.40,NW,313,3.0,6.0,69,0.00,,CLR,0.00,VWS V14.01,2013-02-10 08:22:00,
2013-02-10 03:27:00,18.4,9.9,30.40,NW,323,1.0,6.0,69,0.00,,CLR,0.00,VWS V14.01,2013-02-10 08:27:00,
2013-02-10 03:32:00,18.3,9.9,30.40,NW,313,1.0,3.0,69,0.00,,CLR,0.00,VWS V14.01,2013-02-10 08:32:00,
2013-02-10 03:37:00,18.2,10.1,30.40,NW,317,0.0,3.0,70,0.00,,CLR,0.00,VWS V14.01,2013-02-10 08:37:00,
2013-02-10 03:42:00,18.1,10.0,30.40,NW,317,0.0,3.0,70,0.00,,CLR,0.00,VWS V14.01,2013-02-10 08:42:00,
2013-02-10 03:47:00,17.8,9.4,30.40,NW,317,1.0,3.0,69,0.00,,CLR,0.00,VWS V14.01,2013-02-10 08:47:00,
2013-02-10 03:52:00,17.3,8.6,30.41,NW,317,0.0,3.0,68,0.00,,CLR,0.00,VWS V14.01,2013-02-10 08:52:00,
2013-02-10 03:57:00,16.9,8.8,30.41,NW,317,0.0,3.0,70,0.00,,CLR,0.00,VWS V14.01,2013-02-10 08:57:00,
2013-02-10 04:02:00,16.7,8.9,30.41,NW,317,0.0,0.0,71,0.00,,CLR,0.00,VWS V14.01,2013-02-10 09:02:00,
2013-02-10 04:07:00,16.3,8.9,30.41,NW,317,1.0,1.0,72,0.00,,CLR,0.00,VWS V14.01,2013-02-10 09:07:00,
2013-02-10 04:12:00,15.9,8.5,30.41,NW,317,0.0,2.0,72,0.00,,CLR,0.00,VWS V14.01,2013-02-10 09:12:00,
2013-02-10 04:17:00,15.8,8.4,30.41,NW,317,0.0,2.0,72,0.00,,CLR,0.00,VWS V14.01,2013-02-10 09:17:00,
2013-02-10 04:22:00,15.7,8.9,30.41,NW,317,0.0,2.0,74,0.00,,CLR,0.00,VWS V14.01,2013-02-10 09:22:00,
2013-02-10 04:27:00,15.5,8.7,30.41,NW,317,0.0,2.0,74,0.00,,CLR,0.00,VWS V14.01,2013-02-10 09:27:00,
2013-02-10 04:33:00,15.3,8.5,30.41,NW,317,0.0,0.0,74,0.00,,CLR,0.00,VWS V14.01,2013-02-10 09:33:00,
2013-02-10 04:38:00,15.2,8.7,30.41,NW,317,0.0,2.0,75,0.00,,CLR,0.00,VWS V14.01,2013-02-10 09:38:00,
2013-02-10 04:43:00,15.3,8.5,30.41,NW,317,0.0,2.0,74,0.00,,CLR,0.00,VWS V14.01,2013-02-10 09:43:00,
2013-02-10 04:48:00,15.0,8.2,30.42,WNW,294,0.0,2.0,74,0.00,,CLR,0.00,VWS V14.01,2013-02-10 09:48:00,
2013-02-10 04:53:00,14.9,8.4,30.42,WNW,294,0.0,2.0,75,0.00,,CLR,0.00,VWS V14.01,2013-02-10 09:53:00,
2013-02-10 04:58:00,14.5,8.3,30.42,WNW,294,0.0,2.0,76,0.00,,CLR,0.00,VWS V14.01,2013-02-10 09:58:00,
2013-02-10 05:03:00,14.2,8.0,30.42,WNW,294,0.0,0.0,76,0.00,,CLR,0.00,VWS V14.01,2013-02-10 10:03:00,
2013-02-10 05:08:00,14.1,8.5,30.42,WNW,295,1.0,2.0,78,0.00,,CLR,0.00,VWS V14.01,2013-02-10 10:08:00,
2013-02-10 05:13:00,14.4,9.1,30.41,NW,311,2.0,3.0,79,0.00,,CLR,0.00,VWS V14.01,2013-02-10 10:13:00,
2013-02-10 05:18:00,14.4,8.8,30.41,NW,313,1.0,3.0,78,0.00,,CLR,0.00,VWS V14.01,2013-02-10 10:18:00,
2013-02-10 05:23:00,14.3,9.0,30.42,NW,313,2.0,3.0,79,0.00,,CLR,0.00,VWS V14.01,2013-02-10 10:23:00,
2013-02-10 05:28:00,14.0,8.4,30.42,WNW,298,0.0,3.0,78,0.00,,CLR,0.00,VWS V14.01,2013-02-10 10:28:00,
2013-02-10 05:33:00,14.0,8.7,30.42,NW,311,0.0,2.0,79,0.00,,CLR,0.00,VWS V14.01,2013-02-10 10:33:00,
2013-02-10 05:38:00,14.0,9.0,30.42,NW,311,0.0,2.0,80,0.00,,CLR,0.00,VWS V14.01,2013-02-10 10:38:00,
2013-02-10 05:43:00,14.0,9.0,30.42,NW,311,0.0,2.0,80,0.00,,CLR,0.00,VWS V14.01,2013-02-10 10:43:00,
2013-02-10 05:48:00,14.1,9.1,30.42,NW,311,1.0,2.0,80,0.00,,CLR,0.00,VWS V14.01,2013-02-10 10:48:00,
2013-02-10 05:53:00,14.1,9.1,30.42,NW,311,2.0,2.0,80,0.00,,CLR,0.00,VWS V14.01,2013-02-10 10:53:00,
2013-02-10 05:58:00,14.2,9.7,30.42,NW,311,0.0,2.0,82,0.00,,CLR,0.00,VWS V14.01,2013-02-10 10:58:00,
2013-02-10 06:03:00,14.4,9.6,30.42,NW,311,1.0,2.0,81,0.00,,CLR,0.00,VWS V14.01,2013-02-10 11:03:00,
2013-02-10 06:08:00,14.4,9.6,30.42,NW,311,0.0,2.0,81,0.00,,CLR,0.00,VWS V14.01,2013-02-10 11:08:00,
2013-02-10 06:13:00,14.2,9.4,30.42,NW,311,0.0,2.0,81,0.00,,CLR,0.00,VWS V14.01,2013-02-10 11:13:00,
2013-02-10 06:18:00,14.0,9.3,30.42,NW,311,0.0,2.0,81,0.00,,CLR,0.00,VWS V14.01,2013-02-10 11:18:00,
2013-02-10 06:23:00,13.9,9.4,30.42,NW,311,1.0,2.0,82,0.00,,CLR,0.00,VWS V14.01,2013-02-10 11:23:00,
2013-02-10 06:28:00,14.1,9.9,30.42,WNW,283,2.0,3.0,83,0.00,,CLR,0.00,VWS V14.01,2013-02-10 11:28:00,
2013-02-10 06:34:00,14.7,10.5,30.42,WNW,282,1.0,4.0,83,0.00,,CLR,0.00,VWS V14.01,2013-02-10 11:34:00,
2013-02-10 06:39:00,14.8,10.0,30.43,WNW,282,0.0,4.0,81,0.00,,CLR,0.00,VWS V14.01,2013-02-10 11:39:00,
2013-02-10 06:44:00,14.7,9.9,30.43,WNW,283,0.0,4.0,81,0.00,,CLR,0.00,VWS V14.01,2013-02-10 11:44:00,
2013-02-10 06:49:00,14.5,9.7,30.43,WNW,283,0.0,4.0,81,0.00,,CLR,0.00,VWS V14.01,2013-02-10 11:49:00,
2013-02-10 06:54:00,14.3,9.3,30.44,WNW,283,1.0,4.0,80,0.00,,CLR,0.00,VWS V14.01,2013-02-10 11:54:00,
2013-02-10 06:59:00,13.7,8.7,30.44,WNW,283,0.0,4.0,80,0.00,,CLR,0.00,VWS V14.01,2013-02-10 11:59:00,
2013-02-10 07:04:00,13.5,8.5,30.45,WNW,283,0.0,0.0,80,0.00,,CLR,0.00,VWS V14.01,2013-02-10 12:04:00,
2013-02-10 07:09:00,13.5,8.8,30.45,WNW,282,0.0,2.0,81,0.00,,CLR,0.00,VWS V14.01,2013-02-10 12:09:00,
2013-02-10 07:14:00,13.6,8.9,30.45,WNW,283,0.0,2.0,81,0.00,,CLR,0.00,VWS V14.01,2013-02-10 12:14:00,
2013-02-10 07:19:00,13.5,8.8,30.45,WNW,283,0.0,2.0,81,0.00,,CLR,0.00,VWS V14.01,2013-02-10 12:19:00,
2013-02-10 07:24:00,13.4,8.9,30.45,WNW,282,2.0,2.0,82,0.00,,CLR,0.00,VWS V14.01,2013-02-10 12:24:00,
2013-02-10 07:29:00,13.3,8.8,30.45,WNW,283,0.0,2.0,82,0.00,,CLR,0.00,VWS V14.01,2013-02-10 12:29:00,
2013-02-10 07:34:00,13.3,8.8,30.46,WNW,283,0.0,0.0,82,0.00,,CLR,0.00,VWS V14.01,2013-02-10 12:34:00,
2013-02-10 07:39:00,13.4,9.2,30.46,WNW,282,0.0,1.0,83,0.00,,CLR,0.00,VWS V14.01,2013-02-10 12:39:00,
2013-02-10 07:44:00,13.6,9.4,30.47,WNW,282,0.0,1.0,83,0.00,,CLR,0.00,VWS V14.01,2013-02-10 12:44:00,
2013-02-10 07:49:00,14.0,9.8,30.47,WNW,282,0.0,1.0,83,0.00,,CLR,0.00,VWS V14.01,2013-02-10 12:49:00,
2013-02-10 07:54:00,14.3,10.1,30.48,WNW,282,2.0,2.0,83,0.00,,CLR,0.00,VWS V14.01,2013-02-10 12:54:00,
2013-02-10 07:59:00,14.7,9.9,30.48,WNW,282,0.0,2.0,81,0.00,,CLR,0.00,VWS V14.01,2013-02-10 12:59:00,
2013-02-10 08:04:00,15.2,10.7,30.48,WNW,282,1.0,1.0,82,0.00,,CLR,0.00,VWS V14.01,2013-02-10 13:04:00,
2013-02-10 08:09:00,16.1,11.6,30.48,WNW,298,0.0,3.0,82,0.00,,CLR,0.00,VWS V14.01,2013-02-10 13:09:00,
2013-02-10 08:14:00,16.9,12.1,30.48,WNW,298,2.0,3.0,81,0.00,,CLR,0.00,VWS V14.01,2013-02-10 13:14:00,
2013-02-10 08:19:00,17.8,12.4,30.49,WNW,283,0.0,3.0,79,0.00,,CLR,0.00,VWS V14.01,2013-02-10 13:19:00,
2013-02-10 08:24:00,18.9,12.6,30.48,SW,230,0.0,3.0,76,0.00,,CLR,0.00,VWS V14.01,2013-02-10 13:24:00,
2013-02-10 08:29:00,19.9,13.0,30.49,SSW,198,1.0,3.0,74,0.00,,CLR,0.00,VWS V14.01,2013-02-10 13:29:00,
2013-02-10 08:34:00,20.8,13.2,30.49,SSW,198,0.0,2.0,72,0.00,,CLR,0.00,VWS V14.01,2013-02-10 13:34:00,
2013-02-10 08:39:00,21.6,13.7,30.49,SSW,198,0.0,2.0,71,0.00,,CLR,0.00,VWS V14.01,2013-02-10 13:39:00,
2013-02-10 08:44:00,22.4,13.4,30.49,South,184,2.0,3.0,68,0.00,,CLR,0.00,VWS V14.01,2013-02-10 13:44:00,
2013-02-10 08:49:00,23.4,13.7,30.49,South,183,0.0,3.0,66,0.00,,CLR,0.00,VWS V14.01,2013-02-10 13:49:00,
2013-02-10 08:54:00,24.0,13.6,30.49,South,183,0.0,3.0,64,0.00,,CLR,0.00,VWS V14.01,2013-02-10 13:54:00,
2013-02-10 08:59:00,24.5,14.1,30.49,South,184,1.0,3.0,64,0.00,,CLR,0.00,VWS V14.01,2013-02-10 13:59:00,
2013-02-10 09:04:00,25.0,14.2,30.49,WNW,287,1.0,2.0,63,0.00,,CLR,0.00,VWS V14.01,2013-02-10 14:04:00,
2013-02-10 09:09:00,25.6,14.0,30.49,WNW,290,0.0,2.0,61,0.00,,CLR,0.00,VWS V14.01,2013-02-10 14:09:00,
2013-02-10 09:14:00,26.2,14.6,30.50,South,182,0.0,2.0,61,0.00,,CLR,0.00,VWS V14.01,2013-02-10 14:14:00,
2013-02-10 09:19:00,26.1,13.8,30.50,SW,236,0.0,3.0,59,0.00,,CLR,0.00,VWS V14.01,2013-02-10 14:19:00,
2013-02-10 09:24:00,26.4,14.0,30.50,South,185,0.0,3.0,59,0.00,,CLR,0.00,VWS V14.01,2013-02-10 14:24:00,
2013-02-10 09:29:00,26.7,13.9,30.50,West,263,1.0,3.0,58,0.00,,CLR,0.00,VWS V14.01,2013-02-10 14:29:00,
2013-02-10 09:34:00,26.4,13.6,30.50,SW,223,1.0,4.0,58,0.00,,CLR,0.00,VWS V14.01,2013-02-10 14:34:00,
2013-02-10 09:39:00,26.1,13.4,30.50,South,182,3.0,4.0,58,0.00,,CLR,0.00,VWS V14.01,2013-02-10 14:39:00,
2013-02-10 09:45:00,26.7,14.3,30.50,WNW,300,0.0,4.0,59,0.00,,CLR,0.00,VWS V14.01,2013-02-10 14:45:00,
2013-02-10 09:50:00,27.5,14.3,30.50,SSW,209,1.0,4.0,57,0.00,,CLR,0.00,VWS V14.01,2013-02-10 14:50:00,
2013-02-10 09:55:00,27.4,13.4,30.51,SW,223,1.0,4.0,55,0.00,,CLR,0.00,VWS V14.01,2013-02-10 14:55:00,
2013-02-10 10:00:00,28.0,14.3,30.50,NW,323,1.0,2.0,56,0.00,,CLR,0.00,VWS V14.01,2013-02-10 15:00:00,
2013-02-10 10:05:00,28.9,15.2,30.51,NW,319,0.0,4.0,56,0.01,,CLR,0.01,VWS V14.01,2013-02-10 15:05:00,
2013-02-10 10:10:00,29.7,14.7,30.50,South,183,0.0,4.0,53,0.01,,CLR,0.01,VWS V14.01,2013-02-10 15:10:00,
2013-02-10 10:15:00,30.0,13.6,30.50,SSW,197,0.0,4.0,50,0.01,,CLR,0.01,VWS V14.01,2013-02-10 15:15:00,
2013-02-10 10:20:00,29.5,13.2,30.50,South,191,1.0,5.0,50,0.01,,CLR,0.01,VWS V14.01,2013-02-10 15:20:00,
2013-02-10 10:25:00,29.6,14.1,30.50,WNW,294,2.0,5.0,52,0.01,,CLR,0.01,VWS V14.01,2013-02-10 15:25:00,
2013-02-10 10:30:00,30.9,15.8,30.50,NW,319,0.0,0.0,53,0.01,,CLR,0.01,VWS V14.01,2013-02-10 15:30:00,
2013-02-10 10:35:00,31.9,15.4,30.50,NW,310,3.0,4.0,50,0.01,,CLR,0.01,VWS V14.01,2013-02-10 15:35:00,
2013-02-10 10:40:00,32.5,15.0,30.50,NW,321,2.0,4.0,48,0.01,,CLR,0.01,VWS V14.01,2013-02-10 15:40:00,
2013-02-10 10:45:00,32.9,15.9,30.50,NNW,327,2.0,4.0,49,0.01,,CLR,0.01,VWS V14.01,2013-02-10 15:45:00,
2013-02-10 10:50:00,33.3,15.7,30.50,NNW,342,0.0,4.0,48,0.02,,CLR,0.02,VWS V14.01,2013-02-10 15:50:00,
2013-02-10 10:55:00,33.1,14.6,30.50,WSW,254,1.0,4.0,46,0.02,,CLR,0.02,VWS V14.01,2013-02-10 15:55:00,
2013-02-10 11:00:00,32.9,14.4,30.50,SW,226,0.0,2.0,46,0.02,,CLR,0.02,VWS V14.01,2013-02-10 16:00:00,
2013-02-10 11:05:00,32.9,15.4,30.50,South,173,0.0,3.0,48,0.03,,CLR,0.03,VWS V14.01,2013-02-10 16:05:00,
2013-02-10 11:10:00,33.4,14.9,30.50,SW,224,1.0,3.0,46,0.03,,CLR,0.03,VWS V14.01,2013-02-10 16:10:00,
2013-02-10 11:15:00,33.7,16.1,30.50,ENE,63,0.0,3.0,48,0.03,,CLR,0.03,VWS V14.01,2013-02-10 16:15:00,
2013-02-10 11:20:00,33.9,16.3,30.50,ENE,65,0.0,3.0,48,0.04,,CLR,0.04,VWS V14.01,2013-02-10 16:20:00,
2013-02-10 11:25:00,34.3,15.7,30.49,ENE,65,0.0,3.0,46,0.04,,CLR,0.04,VWS V14.01,2013-02-10 16:25:00,
2013-02-10 11:30:00,34.3,16.7,30.49,East,94,1.0,1.0,48,0.03,,CLR,0.04,VWS V14.01,2013-02-10 16:30:00,
2013-02-10 11:35:00,34.8,17.6,30.49,ENE,57,1.0,4.0,49,0.04,,CLR,0.05,VWS V14.01,2013-02-10 16:35:00,
2013-02-10 11:40:00,35.1,17.4,30.48,NE,55,0.0,4.0,48,0.04,,CLR,0.05,VWS V14.01,2013-02-10 16:40:00,
2013-02-10 11:45:00,35.3,16.6,30.48,ENE,67,0.0,4.0,46,0.04,,CLR,0.05,VWS V14.01,2013-02-10 16:45:00,
2013-02-10 11:50:00,35.2,17.0,30.48,ENE,72,2.0,4.0,47,0.04,,CLR,0.05,VWS V14.01,2013-02-10 16:50:00,
2013-02-10 11:55:00,35.5,17.3,30.47,ENE,74,0.0,4.0,47,0.05,,CLR,0.06,VWS V14.01,2013-02-10 16:55:00,
2013-02-10 12:00:00,35.6,15.3,30.47,East,86,0.0,0.0,43,0.04,,CLR,0.06,VWS V14.01,2013-02-10 17:00:00,
2013-02-10 12:05:00,36.2,15.3,30.46,SW,234,1.0,3.0,42,0.05,,CLR,0.07,VWS V14.01,2013-02-10 17:05:00,
2013-02-10 12:10:00,35.8,13.3,30.45,SSE,147,5.0,6.0,39,0.05,,CLR,0.07,VWS V14.01,2013-02-10 17:10:00,
2013-02-10 12:15:00,34.9,12.5,30.45,East,101,3.0,7.0,39,0.05,,CLR,0.07,VWS V14.01,2013-02-10 17:15:00,
2013-02-10 12:20:00,34.4,12.0,30.45,ENE,75,0.0,7.0,39,0.05,,CLR,0.07,VWS V14.01,2013-02-10 17:20:00,
2013-02-10 12:25:00,34.9,13.0,30.44,SE,127,1.0,7.0,40,0.05,,CLR,0.07,VWS V14.01,2013-02-10 17:25:00,
2013-02-10 12:30:00,35.6,14.8,30.43,ENE,74,3.0,3.0,42,0.03,,CLR,0.07,VWS V14.01,2013-02-10 17:30:00,
2013-02-10 12:35:00,35.5,13.0,30.43,ENE,66,2.0,8.0,39,0.04,,CLR,0.08,VWS V14.01,2013-02-10 17:35:00,
2013-02-10 12:40:00,35.7,13.8,30.43,ENE,78,3.0,8.0,40,0.04,,CLR,0.08,VWS V14.01,2013-02-10 17:40:00,
2013-02-10 12:45:00,36.4,14.4,30.43,ESE,122,3.0,8.0,40,0.04,,CLR,0.08,VWS V14.01,2013-02-10 17:45:00,
2013-02-10 12:50:00,36.3,13.1,30.43,ESE,119,0.0,8.0,38,0.04,,CLR,0.08,VWS V14.01,2013-02-10 17:50:00,
2013-02-10 12:55:00,35.8,12.7,30.43,SSE,163,4.0,8.0,38,0.04,,CLR,0.09,VWS V14.01,2013-02-10 17:55:00,
2013-02-10 13:00:00,35.5,12.4,30.43,ESE,107,1.0,4.0,38,0.03,,CLR,0.09,VWS V14.01,2013-02-10 18:00:00,
2013-02-10 13:05:00,35.1,11.5,30.43,SE,143,3.0,6.0,37,0.03,,CLR,0.09,VWS V14.01,2013-02-10 18:05:00,
2013-02-10 13:10:00,35.0,12.0,30.42,SE,128,0.0,7.0,38,0.03,,CLR,0.09,VWS V14.01,2013-02-10 18:10:00,
2013-02-10 13:15:00,35.7,13.8,30.42,ESE,119,7.0,7.0,40,0.03,,CLR,0.09,VWS V14.01,2013-02-10 18:15:00,
2013-02-10 13:20:00,36.0,12.3,30.43,SSE,148,5.0,7.0,37,0.03,,CLR,0.09,VWS V14.01,2013-02-10 18:20:00,
2013-02-10 13:25:00,35.9,12.8,30.42,ENE,64,1.0,7.0,38,0.03,,CLR,0.09,VWS V14.01,2013-02-10 18:25:00,
2013-02-10 13:30:00,36.1,11.1,30.42,ESE,123,2.0,4.0,35,0.02,,CLR,0.09,VWS V14.01,2013-02-10 18:30:00,
2013-02-10 13:36:00,36.2,11.8,30.42,ESE,120,4.0,4.0,36,0.03,,CLR,0.10,VWS V14.01,2013-02-10 18:36:00,
2013-02-10 13:41:00,36.4,11.4,30.42,SSE,165,3.0,7.0,35,0.03,,CLR,0.10,VWS V14.01,2013-02-10 18:41:00,
2013-02-10 13:46:00,36.4,11.4,30.42,ESE,115,1.0,7.0,35,0.03,,CLR,0.10,VWS V14.01,2013-02-10 18:46:00,
2013-02-10 13:51:00,36.4,12.0,30.42,SE,136,5.0,7.0,36,0.03,,CLR,0.10,VWS V14.01,2013-02-10 18:51:00,
2013-02-10 13:56:00,36.6,12.2,30.42,SSE,155,2.0,8.0,36,0.03,,CLR,0.10,VWS V14.01,2013-02-10 18:56:00,
2013-02-10 14:01:00,36.8,13.0,30.42,SSW,194,0.0,2.0,37,0.01,,CLR,0.10,VWS V14.01,2013-02-10 19:01:00,
2013-02-10 14:06:00,37.2,12.1,30.41,SSE,157,1.0,7.0,35,0.01,,CLR,0.10,VWS V14.01,2013-02-10 19:06:00,
2013-02-10 14:11:00,37.0,12.5,30.42,ENE,78,2.0,7.0,36,0.02,,CLR,0.11,VWS V14.01,2013-02-10 19:11:00,
2013-02-10 14:16:00,37.0,12.5,30.41,SE,138,1.0,7.0,36,0.02,,CLR,0.11,VWS V14.01,2013-02-10 19:16:00,
2013-02-10 14:21:00,38.1,15.4,30.42,NNW,341,1.0,7.0,39,0.02,,CLR,0.11,VWS V14.01,2013-02-10 19:21:00,
2013-02-10 14:26:00,39.1,16.2,30.42,South,175,0.0,7.0,39,0.02,,CLR,0.11,VWS V14.01,2013-02-10 19:26:00,
2013-02-10 14:31:00,39.8,16.3,30.41,WNW,289,0.0,2.0,38,0.02,,CLR,0.11,VWS V14.01,2013-02-10 19:31:00,
2013-02-10 14:36:00,40.1,14.0,30.41,ESE,121,0.0,4.0,34,0.02,,CLR,0.11,VWS V14.01,2013-02-10 19:36:00,
2013-02-10 14:41:00,39.7,13.6,30.41,SE,126,0.0,4.0,34,0.02,,CLR,0.11,VWS V14.01,2013-02-10 19:41:00,
2013-02-10 14:46:00,38.9,13.6,30.40,ESE,116,2.0,5.0,35,0.02,,CLR,0.11,VWS V14.01,2013-02-10 19:46:00,
2013-02-10 14:51:00,38.3,13.7,30.39,ESE,113,2.0,5.0,36,0.02,,CLR,0.11,VWS V14.01,2013-02-10 19:51:00,
2013-02-10 14:56:00,38.4,13.8,30.40,SSE,155,0.0,5.0,36,0.02,,CLR,0.11,VWS V14.01,2013-02-10 19:56:00,
2013-02-10 15:01:00,38.9,14.2,30.40,ESE,108,5.0,7.0,36,0.01,,CLR,0.11,VWS V14.01,2013-02-10 20:01:00,
2013-02-10 15:06:00,39.1,14.4,30.40,ENE,71,1.0,7.0,36,0.01,,CLR,0.11,VWS V14.01,2013-02-10 20:06:00,
2013-02-10 15:11:00,39.6,14.2,30.40,SW,224,2.0,7.0,35,0.01,,CLR,0.11,VWS V14.01,2013-02-10 20:11:00,
2013-02-10 15:16:00,39.9,15.8,30.40,SW,216,1.0,7.0,37,0.01,,CLR,0.11,VWS V14.01,2013-02-10 20:16:00,
2013-02-10 15:21:00,40.1,14.7,30.39,SSE,167,1.0,7.0,35,0.01,,CLR,0.11,VWS V14.01,2013-02-10 20:21:00,
2013-02-10 15:26:00,39.7,14.3,30.39,ESE,111,3.0,7.0,35,0.02,,CLR,0.12,VWS V14.01,2013-02-10 20:26:00,
2013-02-10 15:31:00,39.0,13.0,30.40,SSE,152,1.0,3.0,34,0.01,,CLR,0.12,VWS V14.01,2013-02-10 20:31:00,
2013-02-10 15:36:00,38.6,12.0,30.40,ESE,116,2.0,5.0,33,0.01,,CLR,0.12,VWS V14.01,2013-02-10 20:36:00,
2013-02-10 15:41:00,38.4,13.1,30.40,ESE,105,2.0,5.0,35,0.01,,CLR,0.12,VWS V14.01,2013-02-10 20:41:00,
2013-02-10 15:46:00,38.3,13.1,30.40,ESE,115,5.0,5.0,35,0.01,,CLR,0.12,VWS V14.01,2013-02-10 20:46:00,
2013-02-10 15:51:00,38.3,12.4,30.39,SE,134,2.0,6.0,34,0.01,,CLR,0.12,VWS V14.01,2013-02-10 20:51:00,
2013-02-10 15:56:00,38.2,12.3,30.39,ENE,71,0.0,6.0,34,0.01,,CLR,0.12,VWS V14.01,2013-02-10 20:56:00,
2013-02-10 16:01:00,38.1,12.9,30.39,SE,132,1.0,2.0,35,0.01,,CLR,0.12,VWS V14.01,2013-02-10 21:01:00,
2013-02-10 16:06:00,37.8,12.6,30.39,SE,143,2.0,4.0,35,0.01,,CLR,0.12,VWS V14.01,2013-02-10 21:06:00,
2013-02-10 16:11:00,37.5,13.6,30.39,ENE,74,2.0,4.0,37,0.01,,CLR,0.12,VWS V14.01,2013-02-10 21:11:00,
2013-02-10 16:16:00,37.6,13.1,30.39,ESE,123,3.0,4.0,36,0.01,,CLR,0.12,VWS V14.01,2013-02-10 21:16:00,
2013-02-10 16:21:00,37.2,12.1,30.39,SE,137,0.0,4.0,35,0.01,,CLR,0.12,VWS V14.01,2013-02-10 21:21:00,
2013-02-10 16:26:00,36.9,12.4,30.39,SE,145,4.0,4.0,36,0.01,,CLR,0.12,VWS V14.01,2013-02-10 21:26:00,
2013-02-10 16:31:00,36.7,14.1,30.39,East,80,1.0,2.0,39,0.00,,CLR,0.12,VWS V14.01,2013-02-10 21:31:00,
2013-02-10 16:36:00,36.5,11.5,30.39,ESE,121,2.0,4.0,35,0.00,,CLR,0.12,VWS V14.01,2013-02-10 21:36:00,
2013-02-10 16:41:00,36.4,12.0,30.39,SSE,153,1.0,4.0,36,0.00,,CLR,0.12,VWS V14.01,2013-02-10 21:41:00,
2013-02-10 16:46:00,36.3,11.9,30.39,South,184,1.0,4.0,36,0.00,,CLR,0.12,VWS V14.01,2013-02-10 21:46:00,
2013-02-10 16:51:00,36.1,11.7,30.39,South,184,1.0,4.0,36,0.00,,CLR,0.12,VWS V14.01,2013-02-10 21:51:00,
2013-02-10 16:56:00,36.0,12.3,30.39,South,184,0.0,4.0,37,0.00,,CLR,0.12,VWS V14.01,2013-02-10 21:56:00,
2013-02-10 17:01:00,35.9,10.9,30.39,SSE,148,1.0,2.0,35,0.00,,CLR,0.12,VWS V14.01,2013-02-10 22:01:00,
2013-02-10 17:06:00,35.7,8.8,30.39,ESE,113,0.0,2.0,32,0.00,,CLR,0.12,VWS V14.01,2013-02-10 22:06:00,
2013-02-10 17:11:00,35.6,9.4,30.38,ESE,113,0.0,2.0,33,0.00,,CLR,0.12,VWS V14.01,2013-02-10 22:11:00,
2013-02-10 17:16:00,35.4,11.1,30.38,ESE,113,0.0,2.0,36,0.00,,CLR,0.12,VWS V14.01,2013-02-10 22:16:00,
2013-02-10 17:21:00,35.2,12.7,30.38,ESE,113,0.0,2.0,39,0.00,,CLR,0.12,VWS V14.01,2013-02-10 22:21:00,
2013-02-10 17:26:00,34.9,10.7,30.38,ESE,113,0.0,2.0,36,0.00,,CLR,0.12,VWS V14.01,2013-02-10 22:26:00,
2013-02-10 17:31:00,34.7,13.4,30.39,ESE,113,0.0,0.0,41,0.00,,CLR,0.12,VWS V14.01,2013-02-10 22:31:00,
2013-02-10 17:36:00,34.4,14.8,30.39,ESE,113,0.0,0.0,44,0.00,,CLR,0.12,VWS V14.01,2013-02-10 22:36:00,
2013-02-10 17:41:00,33.9,12.1,30.39,ESE,113,0.0,0.0,40,0.00,,CLR,0.12,VWS V14.01,2013-02-10 22:41:00,
2013-02-10 17:47:00,33.3,13.8,30.40,ESE,113,0.0,0.0,44,0.00,,CLR,0.12,VWS V14.01,2013-02-10 22:47:00,
2013-02-10 17:52:00,32.8,14.3,30.39,ESE,113,0.0,0.0,46,0.00,,CLR,0.12,VWS V14.01,2013-02-10 22:52:00,
2013-02-10 17:57:00,32.4,15.9,30.39,ESE,113,0.0,0.0,50,0.00,,CLR,0.12,VWS V14.01,2013-02-10 22:57:00,
2013-02-10 18:02:00,32.0,15.0,30.39,ESE,113,0.0,0.0,49,0.00,,CLR,0.12,VWS V14.01,2013-02-10 23:02:00,
2013-02-10 18:07:00,31.7,14.3,30.40,ESE,113,0.0,0.0,48,0.00,,CLR,0.12,VWS V14.01,2013-02-10 23:07:00,
2013-02-10 18:12:00,31.3,14.4,30.40,ESE,113,0.0,0.0,49,0.00,,CLR,0.12,VWS V14.01,2013-02-10 23:12:00,
2013-02-10 18:17:00,31.0,16.3,30.40,ESE,113,0.0,0.0,54,0.00,,CLR,0.12,VWS V14.01,2013-02-10 23:17:00,
2013-02-10 18:22:00,30.8,15.7,30.40,ESE,113,0.0,0.0,53,0.00,,CLR,0.12,VWS V14.01,2013-02-10 23:22:00,
2013-02-10 18:27:00,30.5,16.7,30.39,ESE,113,0.0,0.0,56,0.00,,CLR,0.12,VWS V14.01,2013-02-10 23:27:00,
2013-02-10 18:32:00,30.0,16.6,30.40,ESE,113,0.0,0.0,57,0.00,,CLR,0.12,VWS V14.01,2013-02-10 23:32:00,
2013-02-10 18:37:00,29.7,15.9,30.40,ESE,113,0.0,0.0,56,0.00,,CLR,0.12,VWS V14.01,2013-02-10 23:37:00,
2013-02-10 18:42:00,29.5,15.8,30.40,ESE,113,0.0,0.0,56,0.00,,CLR,0.12,VWS V14.01,2013-02-10 23:42:00,
2013-02-10 18:47:00,29.3,16.8,30.40,ESE,113,0.0,0.0,59,0.00,,CLR,0.12,VWS V14.01,2013-02-10 23:47:00,
2013-02-10 18:52:00,29.3,17.1,30.39,ESE,113,0.0,0.0,60,0.00,,CLR,0.12,VWS V14.01,2013-02-10 23:52:00,
2013-02-10 18:57:00,29.2,16.3,30.39,ESE,113,0.0,0.0,58,0.00,,CLR,0.12,VWS V14.01,2013-02-10 23:57:00,
2013-02-10 19:02:00,29.2,18.9,30.39,ESE,113,0.0,0.0,65,0.00,,CLR,0.12,VWS V14.01,2013-02-11 00:02:00,
2013-02-10 19:07:00,29.0,17.6,30.38,ESE,113,0.0,0.0,62,0.00,,CLR,0.12,VWS V14.01,2013-02-11 00:07:00,
2013-02-10 19:12:00,28.9,16.0,30.39,ESE,113,0.0,1.0,58,0.00,,CLR,0.12,VWS V14.01,2013-02-11 00:12:00,
2013-02-10 19:17:00,28.8,16.3,30.38,ESE,113,0.0,1.0,59,0.00,,CLR,0.12,VWS V14.01,2013-02-11 00:17:00,
2013-02-10 19:22:00,28.8,18.2,30.39,ESE,113,0.0,1.0,64,0.00,,CLR,0.12,VWS V14.01,2013-02-11 00:22:00,
2013-02-10 19:27:00,28.7,18.8,30.39,ESE,113,0.0,1.0,66,0.00,,CLR,0.12,VWS V14.01,2013-02-11 00:27:00,
2013-02-10 19:32:00,28.6,18.3,30.38,East,84,1.0,1.0,65,0.00,,CLR,0.12,VWS V14.01,2013-02-11 00:32:00,
2013-02-10 19:37:00,28.6,19.7,30.39,East,84,0.0,1.0,69,0.00,,CLR,0.12,VWS V14.01,2013-02-11 00:37:00,
2013-02-10 19:42:00,28.5,20.3,30.38,East,83,0.0,2.0,71,0.00,,CLR,0.12,VWS V14.01,2013-02-11 00:42:00,
2013-02-10 19:47:00,28.4,20.5,30.38,East,83,0.0,2.0,72,0.00,,CLR,0.12,VWS V14.01,2013-02-11 00:47:00,
2013-02-10 19:52:00,28.2,18.3,30.38,East,88,0.0,2.0,66,0.00,,CLR,0.12,VWS V14.01,2013-02-11 00:52:00,
2013-02-10 19:57:00,28.3,17.7,30.37,East,88,0.0,2.0,64,0.00,,CLR,0.12,VWS V14.01,2013-02-11 00:57:00,
2013-02-10 20:02:00,28.5,18.2,30.37,ENE,67,0.0,2.0,65,0.00,,CLR,0.12,VWS V14.01,2013-02-11 01:02:00,
2013-02-10 20:07:00,28.5,16.8,30.37,ESE,118,2.0,3.0,61,0.00,,CLR,0.12,VWS V14.01,2013-02-11 01:07:00,
2013-02-10 20:12:00,29.0,17.2,30.37,SE,134,0.0,4.0,61,0.00,,CLR,0.12,VWS V14.01,2013-02-11 01:12:00,
2013-02-10 20:18:00,29.3,17.5,30.37,SE,142,0.0,4.0,61,0.00,,CLR,0.12,VWS V14.01,2013-02-11 01:18:00,
2013-02-10 20:23:00,29.4,18.4,30.38,SE,130,0.0,4.0,63,0.00,,CLR,0.12,VWS V14.01,2013-02-11 01:23:00,
2013-02-10 20:28:00,29.5,18.8,30.39,SE,130,0.0,4.0,64,0.00,,CLR,0.12,VWS V14.01,2013-02-11 01:28:00,
2013-02-10 20:33:00,29.5,18.8,30.39,SE,130,0.0,0.0,64,0.00,,CLR,0.12,VWS V14.01,2013-02-11 01:33:00,
2013-02-10 20:38:00,29.6,19.3,30.39,SE,130,0.0,1.0,65,0.00,,CLR,0.12,VWS V14.01,2013-02-11 01:38:00,
2013-02-10 20:43:00,29.5,19.6,30.39,SE,130,0.0,1.0,66,0.00,,CLR,0.12,VWS V14.01,2013-02-11 01:43:00,
2013-02-10 20:48:00,29.3,19.7,30.39,SE,130,0.0,1.0,67,0.00,,CLR,0.12,VWS V14.01,2013-02-11 01:48:00,
2013-02-10 20:53:00,29.2,20.0,30.38,SE,130,1.0,1.0,68,0.00,,CLR,0.12,VWS V14.01,2013-02-11 01:53:00,
2013-02-10 20:58:00,29.2,20.3,30.38,ENE,66,0.0,2.0,69,0.00,,CLR,0.12,VWS V14.01,2013-02-11 01:58:00,
2013-02-10 21:03:00,29.2,20.6,30.38,ENE,66,0.0,1.0,70,0.00,,CLR,0.12,VWS V14.01,2013-02-11 02:03:00,
2013-02-10 21:08:00,29.2,21.3,30.38,ENE,67,0.0,1.0,72,0.00,,CLR,0.12,VWS V14.01,2013-02-11 02:08:00,
2013-02-10 21:13:00,29.3,21.1,30.38,ESE,104,0.0,2.0,71,0.00,,CLR,0.12,VWS V14.01,2013-02-11 02:13:00,
2013-02-10 21:18:00,29.4,21.2,30.38,SE,128,0.0,3.0,71,0.00,,CLR,0.12,VWS V14.01,2013-02-11 02:18:00,
2013-02-10 21:23:00,29.4,21.2,30.37,SE,132,0.0,3.0,71,0.00,,CLR,0.12,VWS V14.01,2013-02-11 02:23:00,
2013-02-10 21:28:00,29.5,21.3,30.37,SE,128,0.0,3.0,71,0.00,,CLR,0.12,VWS V14.01,2013-02-11 02:28:00,
2013-02-10 21:33:00,29.5,21.6,30.37,ESE,118,2.0,3.0,72,0.00,,CLR,0.12,VWS V14.01,2013-02-11 02:33:00,
2013-02-10 21:38:00,29.5,21.3,30.36,SE,140,0.0,4.0,71,0.00,,CLR,0.12,VWS V14.01,2013-02-11 02:38:00,
2013-02-10 21:43:00,29.6,21.7,30.36,SE,142,0.0,4.0,72,0.00,,CLR,0.12,VWS V14.01,2013-02-11 02:43:00,
2013-02-10 21:48:00,29.6,21.7,30.36,SE,146,2.0,4.0,72,0.00,,CLR,0.12,VWS V14.01,2013-02-11 02:48:00,
2013-02-10 21:53:00,29.5,21.9,30.36,SE,134,1.0,4.0,73,0.00,,CLR,0.12,VWS V14.01,2013-02-11 02:53:00,
2013-02-10 21:58:00,29.5,21.9,30.36,SE,131,1.0,4.0,73,0.00,,CLR,0.12,VWS V14.01,2013-02-11 02:58:00,
2013-02-10 22:03:00,29.6,22.0,30.36,NE,55,0.0,3.0,73,0.00,,CLR,0.12,VWS V14.01,2013-02-11 03:03:00,
2013-02-10 22:08:00,29.5,21.9,30.36,SSE,155,1.0,3.0,73,0.00,,CLR,0.12,VWS V14.01,2013-02-11 03:08:00,
2013-02-10 22:13:00,29.5,21.9,30.36,SE,131,1.0,3.0,73,0.00,,CLR,0.12,VWS V14.01,2013-02-11 03:13:00,
2013-02-10 22:18:00,29.6,22.0,30.36,SE,132,2.0,6.0,73,0.00,,CLR,0.12,VWS V14.01,2013-02-11 03:18:00,
2013-02-10 22:23:00,29.6,22.0,30.36,SE,132,0.0,6.0,73,0.00,,CLR,0.12,VWS V14.01,2013-02-11 03:23:00,
2013-02-10 22:28:00,29.7,22.1,30.35,East,86,1.0,6.0,73,0.00,,CLR,0.12,VWS V14.01,2013-02-11 03:28:00,
2013-02-10 22:33:00,29.7,22.1,30.35,East,91,0.0,1.0,73,0.00,,CLR,0.12,VWS V14.01,2013-02-11 03:33:00,
2013-02-10 22:38:00,29.8,22.2,30.35,ESE,106,0.0,2.0,73,0.00,,CLR,0.12,VWS V14.01,2013-02-11 03:38:00,
2013-02-10 22:43:00,29.8,22.2,30.34,East,96,1.0,2.0,73,0.00,,CLR,0.12,VWS V14.01,2013-02-11 03:43:00,
2013-02-10 22:48:00,29.8,22.2,30.34,SE,137,3.0,3.0,73,0.00,,CLR,0.12,VWS V14.01,2013-02-11 03:48:00,
2013-02-10 22:53:00,29.7,22.4,30.34,SE,143,0.0,3.0,74,0.00,,CLR,0.12,VWS V14.01,2013-02-11 03:53:00,
2013-02-10 22:58:00,29.7,22.4,30.34,SE,143,0.0,3.0,74,0.00,,CLR,0.12,VWS V14.01,2013-02-11 03:58:00,
2013-02-10 23:03:00,29.6,22.4,30.34,SE,146,2.0,3.0,74,0.00,,CLR,0.12,VWS V14.01,2013-02-11 04:03:00,
2013-02-10 23:08:00,29.6,22.4,30.34,ESE,123,0.0,3.0,74,0.00,,CLR,0.12,VWS V14.01,2013-02-11 04:08:00,
2013-02-10 23:13:00,29.6,22.0,30.34,ESE,120,0.0,4.0,73,0.00,,CLR,0.12,VWS V14.01,2013-02-11 04:13:00,
2013-02-10 23:18:00,29.7,22.1,30.34,ESE,121,0.0,4.0,73,0.00,,CLR,0.12,VWS V14.01,2013-02-11 04:18:00,
2013-02-10 23:23:00,29.7,22.1,30.34,ESE,121,1.0,4.0,73,0.00,,CLR,0.12,VWS V14.01,2013-02-11 04:23:00,
2013-02-10 23:28:00,29.7,22.1,30.34,ESE,106,2.0,4.0,73,0.00,,CLR,0.12,VWS V14.01,2013-02-11 04:28:00,
2013-02-10 23:33:00,29.7,22.4,30.34,ESE,105,0.0,1.0,74,0.00,,CLR,0.12,VWS V14.01,2013-02-11 04:33:00,
2013-02-10 23:38:00,29.6,22.4,30.35,SSE,157,0.0,3.0,74,0.00,,CLR,0.12,VWS V14.01,2013-02-11 04:38:00,
2013-02-10 23:43:00,29.6,22.4,30.34,SSE,157,2.0,3.0,74,0.00,,CLR,0.12,VWS V14.01,2013-02-11 04:43:00,
2013-02-10 23:48:00,29.6,22.7,30.35,ESE,105,1.0,3.0,75,0.00,,CLR,0.12,VWS V14.01,2013-02-11 04:48:00,
2013-02-10 23:53:00,29.6,22.4,30.35,ESE,120,0.0,3.0,74,0.00,,CLR,0.12,VWS V14.01,2013-02-11 04:53:00,
2013-02-10 23:58:00,29.6,22.4,30.34,ESE,119,2.0,3.0,74,0.00,,CLR,0.12,VWS V14.01,2013-02-11 04:58:00,